Regional Weather Roundup
Issued by NWS Jackson, KY

Home | Current Version | Previous Version | Graphics & Text | Print | Product List | Glossary On
Versions: 1 2 3 4 5 6 7 8 9 10 11 12 13 14 15 16 17 18 19 20 21 22 23 24 25 26 27 28 29 30 31 32 33 34 35 36 37 38 39 40 41 42 43 44 45 46 47 48 49 50
000
ASUS43 KJKL 250010
RWRJKL

EAST KENTUCKY HOURLY WEATHER ROUNDUP
NATIONAL WEATHER SERVICE JACKSON KY
800 PM EDT WED AUG 24 2016

NOTE: "FAIR" INDICATES FEW OR NO CLOUDS BELOW 12,000 FEET WITH
NO SIGNIFICANT WEATHER AND/OR OBSTRUCTIONS TO VISIBILITY.

* THESE REPORTS ARE NOT UNDER NWS QUALITY CONTROL AND MAY NOT
  REPORT WEATHER SUCH AS PRECIPITATION AND FOG.

KYZ079-080-083-085-087-088-110-112-115-119-120-250100
...EASTERN KENTUCKY...

CITY           SKY/WX    TMP DP  RH WIND       PRES   REMARKS
JACKSON        PTCLDY    81  70  69 CALM      30.18S
6HR MIN TEMP:  81; 6HR MAX TEMP:  86;

LONDON         CLEAR     84  69  60 SW3       30.17R
6HR MIN TEMP:  83; 6HR MAX TEMP:  88;

SOMERSET*      CLEAR     82  68  61 W6        30.17R
MONTICELLO*    CLEAR    N/A N/A N/A W13       30.18R
WILLIAMSBURG*  PTCLDY    82  73  74 CALM      30.17S
MIDDLESBORO*   CLEAR     81  74  79 CALM      30.18R
6HR MIN TEMP:  81; 6HR MAX TEMP:  88;

HARLAN APT*    PTCLDY    79  70  73 CALM      30.21R
PIKE CO APT*     N/A     80  71  73 CALM      30.19S
BIG SANDY APT* CLOUDY    82  71  69 CALM      30.17S
6HR MIN TEMP:  82; 6HR MAX TEMP:  87;

MOREHEAD APT*  MOCLDY    81  72  74 S6        30.15S
ASHLAND*       MOCLDY    82  72  69 S3        30.09F
$$

KYZ035-036-041-042-044-050-067-078-099-250100
...CENTRAL KENTUCKY...

CITY           SKY/WX    TMP DP  RH WIND       PRES   REMARKS
MT STERLING*   PTCLDY    82  72  69 SW5       30.15F
FLEMING/MASON* CLOUDY    81  73  76 S7        30.12F
DANVILLE*      CLEAR     81  70  69 SW3       30.15S
LEXINGTON      CLEAR     83  71  67 S9        30.13S
6HR MIN TEMP:  83; 6HR MAX TEMP:  89;

FRANKFORT      CLEAR     85  70  60 S10       30.10F
6HR MIN TEMP:  85; 6HR MAX TEMP:  90;

LOUISVILLE     MOCLDY    86  72  62 S12       30.07F HX  92
6HR MIN TEMP:  86; 6HR MAX TEMP:  92; 6HR PCP: TRACE;

LEBANON*         N/A     82  73  74 SE5       30.13S
GLASGOW*       PTCLDY    83  73  69 S3        30.13R
BOWLING GREEN  PTCLDY    87  72  60 SW8       30.11R HX  93
6HR MIN TEMP:  87; 6HR MAX TEMP:  92;

$$

KYZ091>093-OHZ055-061-077-WVZ005-015-034-035-042-250100
...SOUTHERN OHIO/WEST VIRGINIA...

CITY           SKY/WX    TMP DP  RH WIND       PRES   REMARKS
COVINGTON      CLOUDY    83  73  72 S8        30.07F
COLUMBUS       LGT RAIN  78  70  76 S9        30.07F
DAYTON         CLOUDY    78  74  87 S10       30.05F
WILMINGTON     CLOUDY    78  73  84 S9        30.06F
HUNTINGTON     CLOUDY    81  70  69 CALM      30.13S
CHARLESTON     CLOUDY    79  71  76 CALM      30.16S
PINEVILLE*     PTCLDY    73  67  83 MISG      30.26F
BECKLEY        PTCLDY    73  66  78 S3        30.26S
BLUEFIELD      CLOUDY    72  64  76 CALM      30.30R
LOGAN CO APT*    N/A     79  70  73 CALM      30.19S
$$

VAZ002-007-008-TNZ017-027-036-066-071-250100
...SOUTHWEST VIRGINIA/EAST TENNESSEE...

CITY           SKY/WX    TMP DP  RH WIND       PRES   REMARKS
WISE*          PTCLDY    73  61  64 S5        30.29S
JONESVILLE*      N/A     81  72  74 CALM      30.22R
ABINGDON*      PTCLDY    78  69  72 CALM      30.26R
BRISTOL        MOCLDY    80  68  66 CALM      30.22R
MORRISTOWN*    MOCLDY    82  72  69 CALM      30.18S
SEVIERVILLE*     N/A     84  66  54 W5        30.16S
KNOXVILLE      PTCLDY    85  69  58 W6        30.15F
CROSSVILLE     CLEAR     80  71  74 CALM      30.22S
NASHVILLE      MOCLDY    88  71  57 CALM      30.12S HX  94
$$

...KEY TO REMARKS...
VSB - VISIBILITY IN MILES
WCI - WIND CHILL INDEX
HX  - HEAT INDEX

$$



USA.gov is the U.S. government's official web portal to all federal, state and local government web resources and services.